| time (UTC) | temp F | wind direction | speed MPH | gust MPH | rain 1hr in | rain 24hr in | rain mn in | humidity % | barometer mb |
| 20260901030018 | 87 | 121 | 0.0 | 2.0 | 0.00 | 0.00 | 0.00 | 56 | 1015.9 |
| 20260901024522 | 87 | 79 | 0.0 | 1.0 | 0.00 | 0.00 | 0.00 | 56 | 1015.7 |
| 20260901023005 | 87 | 98 | 0.0 | 1.0 | 0.00 | 0.00 | 0.00 | 56 | 1015.5 |
| 20260901021508 | 88 | 75 | 0.0 | 1.0 | 0.00 | 0.00 | 0.00 | 55 | 1015.4 |
| 20260901020036 | 88 | 148 | 0.0 | 1.0 | 0.00 | 0.00 | 0.00 | 54 | 1015.3 |
| 20260901014520 | 89 | 126 | 0.0 | 0.0 | 0.00 | 0.00 | 0.00 | 53 | 1015.1 |
| 20260901013026 | 90 | 126 | 0.0 | 0.0 | 0.00 | 0.00 | 0.00 | 50 | 1015.0 |
| 20260901011537 | 91 | 126 | 0.0 | 0.0 | 0.00 | 0.00 | 0.00 | 48 | 1015.0 |
| 20260901010010 | 92 | 105 | 0.0 | 7.0 | 0.00 | 0.00 | 0.00 | 46 | 1015.0 |
| 20260901004519 | 93 | 91 | 0.0 | 1.0 | 0.00 | 0.00 | 0.00 | 45 | 1015.0 |
| 20260901003025 | 94 | 134 | 0.0 | 4.0 | 0.00 | 0.00 | 0.00 | 43 | 1014.9 |
| 20260901001528 | 95 | 118 | 0.0 | 6.0 | 0.00 | 0.00 | 0.00 | 41 | 1014.7 |
| 20260901000004 | 96 | 114 | 3.0 | 8.0 | 0.00 | 0.00 | 0.00 | 40 | 1014.5 |
| 20260831234504 | 97 | 107 | 0.0 | 3.0 | 0.00 | 0.00 | 0.00 | 40 | 1014.4 |
| 20260831233007 | 97 | 84 | 0.0 | 2.0 | 0.00 | 0.00 | 0.00 | 39 | 1014.5 |
| 20260831231503 | 98 | 42 | 0.0 | 4.0 | 0.00 | 0.00 | 0.00 | 39 | 1014.5 |
| 20260831230004 | 98 | 85 | 2.0 | 9.0 | 0.00 | 0.00 | 0.00 | 37 | 1014.5 |
| 20260831224505 | 99 | 144 | 1.0 | 7.0 | 0.00 | 0.00 | 0.00 | 36 | 1014.5 |
| 20260831223004 | 99 | 113 | 0.0 | 7.0 | 0.00 | 0.00 | 0.00 | 36 | 1014.6 |
| 20260831221503 | 99 | 124 | 1.0 | 6.0 | 0.00 | 0.00 | 0.00 | 37 | 1014.8 |
| 20260831220006 | 99 | 126 | 0.0 | 7.0 | 0.00 | 0.00 | 0.00 | 36 | 1014.8 |
| 20260831214509 | 99 | 75 | 1.0 | 6.0 | 0.00 | 0.00 | 0.00 | 36 | 1015.0 |
| 20260831213005 | 99 | 30 | 2.0 | 10.0 | 0.00 | 0.00 | 0.00 | 36 | 1015.0 |
| 20260831211505 | 99 | 88 | 1.0 | 9.0 | 0.00 | 0.00 | 0.00 | 38 | 1015.2 |
| 20260831210005 | 99 | 105 | 2.0 | 10.0 | 0.00 | 0.00 | 0.00 | 37 | 1015.3 |
| 20260831204511 | 99 | 187 | 0.0 | 8.0 | 0.00 | 0.00 | 0.00 | 36 | 1015.6 |
| 20260831203005 | 98 | 118 | 4.0 | 10.0 | 0.00 | 0.00 | 0.00 | 36 | 1015.9 |
| 20260831201507 | 98 | 138 | 2.0 | 10.0 | 0.00 | 0.00 | 0.00 | 39 | 1016.1 |
| 20260831200020 | 96 | 143 | 2.0 | 10.0 | 0.00 | 0.00 | 0.00 | 39 | 1016.4 |
| 20260831194517 | 95 | 95 | 0.0 | 6.0 | 0.00 | 0.00 | 0.00 | 42 | 1016.6 |
| 20260831193009 | 95 | 140 | 0.0 | 4.0 | 0.00 | 0.00 | 0.00 | 44 | 1016.8 |
| 20260831191511 | 96 | 67 | 0.0 | 9.0 | 0.00 | 0.00 | 0.00 | 45 | 1017.0 |
| 20260831190013 | 96 | 74 | 2.0 | 7.0 | 0.00 | 0.00 | 0.00 | 45 | 1017.1 |
| 20260831184522 | 95 | 137 | 0.0 | 9.0 | 0.00 | 0.00 | 0.00 | 46 | 1017.4 |
| 20260831183012 | 94 | 129 | 2.0 | 9.0 | 0.00 | 0.00 | 0.00 | 47 | 1017.5 |
| 20260831181516 | 94 | 134 | 1.0 | 7.0 | 0.00 | 0.00 | 0.00 | 47 | 1017.7 |
| 20260831180010 | 95 | 78 | 0.0 | 10.0 | 0.00 | 0.00 | 0.00 | 47 | 1017.8 |
| 20260831174515 | 94 | 222 | 1.0 | 7.0 | 0.00 | 0.00 | 0.00 | 47 | 1018.0 |
| 20260831173014 | 94 | 159 | 3.0 | 8.0 | 0.00 | 0.00 | 0.00 | 48 | 1018.4 |
| 20260831171517 | 93 | 249 | 2.0 | 8.0 | 0.00 | 0.00 | 0.00 | 49 | 1018.6 |
| 20260831170008 | 93 | 257 | 2.0 | 7.0 | 0.00 | 0.00 | 0.00 | 49 | 1018.8 |
| 20260831164513 | 92 | 250 | 0.0 | 6.0 | 0.00 | 0.00 | 0.00 | 51 | 1019.0 |
| 20260831163019 | 91 | 114 | 0.0 | 8.0 | 0.00 | 0.00 | 0.00 | 54 | 1019.0 |
| 20260831161521 | 90 | 78 | 1.0 | 3.0 | 0.00 | 0.00 | 0.00 | 56 | 1019.0 |
| 20260831160008 | 89 | 161 | 1.0 | 4.0 | 0.00 | 0.00 | 0.00 | 58 | 1019.1 |
| 20260831154522 | 88 | 83 | 0.0 | 6.0 | 0.00 | 0.00 | 0.00 | 61 | 1019.1 |
| 20260831153016 | 87 | 298 | 1.0 | 5.0 | 0.00 | 0.00 | 0.00 | 64 | 1019.0 |
| 20260831151505 | 85 | 111 | 2.0 | 4.0 | 0.00 | 0.00 | 0.00 | 65 | 1018.9 |
| 20260831150013 | 85 | 74 | 0.0 | 3.0 | 0.00 | 0.00 | 0.00 | 72 | 1018.7 |
| 20260831144517 | 83 | 156 | 1.0 | 4.0 | 0.00 | 0.00 | 0.00 | 74 | 1018.8 |
| 20260831143033 | 82 | 205 | 2.0 | 6.0 | 0.00 | 0.00 | 0.00 | 76 | 1018.8 |
| 20260831141518 | 81 | 118 | 1.0 | 5.0 | 0.00 | 0.00 | 0.00 | 78 | 1018.7 |
| 20260831140002 | 80 | 155 | 1.0 | 5.0 | 0.00 | 0.00 | 0.00 | 80 | 1018.6 |
| 20260831134504 | 78 | 155 | 1.0 | 4.0 | 0.00 | 0.00 | 0.00 | 82 | 1018.6 |
| 20260831133011 | 75 | 145 | 0.0 | 2.0 | 0.00 | 0.00 | 0.00 | 86 | 1018.4 |
| 20260831131516 | 73 | 150 | 0.0 | 0.0 | 0.00 | 0.00 | 0.00 | 86 | 1018.2 |
| 20260831130023 | 72 | 157 | 0.0 | 1.0 | 0.00 | 0.00 | 0.00 | 86 | 1017.9 |
| 20260831124509 | 72 | 195 | 0.0 | 0.0 | 0.00 | 0.00 | 0.00 | 86 | 1017.7 |
| 20260831123006 | 72 | 195 | 0.0 | 0.0 | 0.00 | 0.00 | 0.00 | 86 | 1017.4 |
| 20260831121528 | 72 | 195 | 0.0 | 0.0 | 0.00 | 0.00 | 0.00 | 85 | 1017.3 |
| 20260831120021 | 72 | 188 | 0.0 | 0.0 | 0.00 | 0.00 | 0.00 | 85 | 1017.2 |
| 20260831114530 | 72 | 188 | 0.0 | 0.0 | 0.00 | 0.00 | 0.00 | 84 | 1017.0 |
| 20260831113006 | 72 | 188 | 0.0 | 0.0 | 0.00 | 0.00 | 0.00 | 83 | 1016.9 |
| 20260831111511 | 73 | 188 | 0.0 | 0.0 | 0.00 | 0.00 | 0.00 | 82 | 1017.0 |
| 20260831110015 | 73 | 188 | 0.0 | 0.0 | 0.00 | 0.00 | 0.00 | 81 | 1017.0 |
| 20260831104524 | 74 | 188 | 0.0 | 0.0 | 0.00 | 0.00 | 0.00 | 80 | 1016.9 |
| 20260831103027 | 74 | 188 | 0.0 | 0.0 | 0.00 | 0.00 | 0.00 | 79 | 1017.0 |
| 20260831101506 | 75 | 188 | 0.0 | 0.0 | 0.00 | 0.00 | 0.00 | 78 | 1016.8 |
| 20260831100014 | 75 | 188 | 0.0 | 0.0 | 0.00 | 0.00 | 0.00 | 77 | 1016.7 |
| 20260831094523 | 76 | 188 | 0.0 | 0.0 | 0.00 | 0.00 | 0.00 | 75 | 1016.6 |
| 20260831093028 | 77 | 188 | 0.0 | 0.0 | 0.00 | 0.00 | 0.00 | 74 | 1016.6 |
| 20260831091527 | 78 | 188 | 0.0 | 0.0 | 0.00 | 0.00 | 0.00 | 73 | 1016.6 |
| 20260831090031 | 78 | 144 | 0.0 | 1.0 | 0.00 | 0.00 | 0.00 | 71 | 1016.6 |
| 20260831084528 | 79 | 142 | 0.0 | 3.0 | 0.00 | 0.00 | 0.00 | 69 | 1016.6 |
| 20260831083024 | 79 | 163 | 1.0 | 4.0 | 0.00 | 0.00 | 0.00 | 69 | 1016.5 |
| 20260831081529 | 79 | 132 | 0.0 | 4.0 | 0.00 | 0.00 | 0.00 | 68 | 1016.5 |
| 20260831080029 | 80 | 161 | 0.0 | 1.0 | 0.00 | 0.00 | 0.00 | 67 | 1016.6 |
| 20260831074540 | 80 | 179 | 0.0 | 3.0 | 0.00 | 0.00 | 0.00 | 67 | 1016.5 |
| 20260831073047 | 80 | 140 | 0.0 | 4.0 | 0.00 | 0.00 | 0.00 | 66 | 1016.4 |
| 20260831071524 | 80 | 121 | 0.0 | 3.0 | 0.00 | 0.00 | 0.00 | 65 | 1016.5 |
| 20260831070032 | 81 | 161 | 0.0 | 5.0 | 0.00 | 0.00 | 0.00 | 65 | 1016.5 |
| 20260831064538 | 81 | 146 | 0.0 | 2.0 | 0.00 | 0.00 | 0.00 | 64 | 1016.6 |
| 20260831063030 | 82 | 167 | 0.0 | 3.0 | 0.00 | 0.00 | 0.00 | 63 | 1016.6 |
| 20260831061532 | 82 | 142 | 0.0 | 5.0 | 0.00 | 0.00 | 0.00 | 62 | 1016.5 |
| 20260831060025 | 82 | 174 | 1.0 | 5.0 | 0.00 | 0.00 | 0.00 | 62 | 1016.4 |
| 20260831054534 | 81 | 144 | 1.0 | 7.0 | 0.00 | 0.00 | 0.00 | 63 | 1016.2 |
| 20260831053019 | 79 | 261 | 0.0 | 1.0 | 0.00 | 0.00 | 0.00 | 67 | 1016.1 |
| 20260831051516 | 79 | 261 | 0.0 | 0.0 | 0.00 | 0.00 | 0.00 | 68 | 1016.1 |
| 20260831050037 | 79 | 261 | 0.0 | 0.0 | 0.00 | 0.00 | 0.00 | 68 | 1015.8 |
| 20260831044504 | 79 | 261 | 0.0 | 0.0 | 0.00 | 0.00 | 0.00 | 69 | 1015.9 |
| 20260831043009 | 79 | 261 | 0.0 | 0.0 | 0.00 | 0.00 | 0.00 | 69 | 1015.8 |
| 20260831041511 | 79 | 261 | 0.0 | 0.0 | 0.00 | 0.00 | 0.00 | 70 | 1015.8 |
| 20260831040039 | 79 | 261 | 0.0 | 0.0 | 0.00 | 0.00 | 0.00 | 71 | 1015.5 |
| 20260831034532 | 79 | 261 | 0.0 | 0.0 | 0.00 | 0.00 | 0.00 | 71 | 1015.5 |
| 20260831033030 | 80 | 261 | 0.0 | 0.0 | 0.00 | 0.00 | 0.00 | 69 | 1015.1 |
| 20260831031507 | 80 | 261 | 0.0 | 0.0 | 0.00 | 0.00 | 0.00 | 68 | 1015.0 |